Weather History for KSDM - February, 2013

Change the Weather History Date:

Monday, February 18, 2013

  Actual Average Record
Temperature  
Mean Temperature 54 °F -  
Max Temperature 60 °F 62 °F 72 °F (2007)
Min Temperature 48 °F 44 °F 37 °F (2012)
Degree Days  
Heating Degree Days 11    
Growing Degree Days 4 (Base 50)    
Moisture  
Dew Point 45 °F    
Average Humidity 76    
Maximum Humidity 86    
Minimum Humidity 60    
Precipitation  
Precipitation 0.00 in - - ()
Sea Level Pressure  
Sea Level Pressure 30.03 in    
Wind  
Wind Speed 5 mph (SSW)    
Max Wind Speed 10 mph    
Max Gust Speed -    
Visibility 9 miles    
Events      
Averages and records for this station are not official NWS values.
T = Trace of Precipitation, MM = Missing Value Source: NWS Daily Summary

Daily Weather History Graph

Daily Weather History Graph

Search for Another Location

Airport or City:

Trip Planner

Search our weather history database for the weather conditions in past years. The results will help you decide how hot, cold, wet, or windy it might be!

Date:

Astronomy

Feb. 18, 2013 Rise Set
Actual Time 6:27 AM PST 5:36 PM PST
Civil Twilight 6:02 AM PST 6:01 PM PST
Nautical Twilight 5:33 AM PST 6:30 PM PST
Astronomical Twilight 5:05 AM PST 6:58 PM PST
Moon 11:35 AM PST (2/18) 1:02 AM PST (2/18)
Length of Visible Light 11h 59m
Length of Day
11h 09m
First Quarter, 59% of the Moon is Illuminated
Feb 18
First Quarter
Feb 25
Full
Mar 4
Last Quarter
Mar 11
New
Mar 19
First Quarter

Hourly Weather History & Observations

Time (PST) Temp. Dew Point Humidity Pressure Visibility Wind Dir Wind Speed Gust Speed Precip Events Conditions
12:29 AM 51.8 °F 46.4 °F 82% 30.03 in 9.0 mi Calm Calm - N/A   Overcast
12:53 AM 51.1 °F 46.9 °F 86% 30.03 in 9.0 mi East 3.5 mph - N/A   Overcast
1:53 AM 50.0 °F 46.0 °F 86% 30.03 in 7.0 mi South 3.5 mph - N/A   Overcast
2:53 AM 50.0 °F 46.0 °F 86% 30.03 in 7.0 mi South 6.9 mph - N/A   Overcast
3:53 AM 50.0 °F 45.0 °F 83% 30.04 in 9.0 mi SE 5.8 mph - N/A   Overcast
4:40 AM 50.0 °F 44.6 °F 82% 30.05 in 10.0 mi SSE 5.8 mph - N/A   Overcast
4:53 AM 50.0 °F 45.0 °F 83% 30.05 in 10.0 mi SSE 6.9 mph - N/A   Overcast
5:53 AM 48.9 °F 44.1 °F 83% 30.06 in 7.0 mi ESE 8.1 mph - N/A   Overcast
6:53 AM 48.9 °F 44.1 °F 83% 30.06 in 6.0 mi ESE 8.1 mph - N/A   Haze
7:53 AM 50.0 °F 44.1 °F 80% 30.06 in 8.0 mi SSE 5.8 mph - N/A   Scattered Clouds
8:53 AM 52.0 °F 45.0 °F 77% 30.06 in 7.0 mi South 4.6 mph - N/A   Clear
9:53 AM 55.0 °F 44.1 °F 67% 30.06 in 7.0 mi West 4.6 mph - N/A   Clear
10:53 AM 57.9 °F 45.0 °F 62% 30.06 in 8.0 mi West 6.9 mph - N/A   Clear
11:53 AM 60.1 °F 46.0 °F 60% 30.04 in 10.0 mi Variable 4.6 mph - N/A   Clear
12:53 PM 60.1 °F 46.9 °F 62% 30.02 in 10.0 mi Variable 6.9 mph - N/A   Clear
1:53 PM 59.0 °F 46.9 °F 64% 30.01 in 10.0 mi WSW 9.2 mph - N/A   Clear
2:53 PM 55.9 °F 46.0 °F 69% 30.01 in 10.0 mi WSW 10.4 mph - N/A   Clear
3:53 PM 55.0 °F 46.0 °F 72% 30.00 in 10.0 mi WSW 9.2 mph - N/A   Clear
4:53 PM 52.0 °F 44.1 °F 74% 29.99 in 10.0 mi WSW 9.2 mph - N/A   Clear
5:53 PM 48.9 °F 43.0 °F 80% 30.00 in 10.0 mi West 5.8 mph - N/A   Mostly Cloudy
6:53 PM 50.0 °F 44.1 °F 80% 30.00 in 10.0 mi West 4.6 mph - N/A   Overcast
7:53 PM 51.1 °F 44.1 °F 77% 30.01 in 10.0 mi West 3.5 mph - N/A   Overcast
8:53 PM 50.0 °F 43.0 °F 77% 30.02 in 10.0 mi SW 5.8 mph - N/A   Overcast
9:53 PM 50.0 °F 43.0 °F 77% 30.02 in 10.0 mi SW 4.6 mph - N/A   Overcast
10:53 PM 50.0 °F 43.0 °F 77% 30.01 in 10.0 mi SSW 3.5 mph - N/A   Overcast
11:53 PM 50.0 °F 42.1 °F 74% 30.01 in 10.0 mi SSW 5.8 mph - N/A   Overcast